Temp
87 89 89 84 74 71 63 66 67 70 72 80 84 80 78 76 73 68 81 85 86 86 87 86 82 83 83 83 83 83 83 83 83 83 84 84 84 84 84 83 84 84 84 84 84 84 84 84 84
90 87 86 80 70 63 63 70 64 73 79 83 83 80 77 71 76 72 77 84 87 88 89 88 82 83 83 83 83 83 84 84 83 83 84 84 84 84 84 84 84 84 84 84 84 84 84 84 84
88 87 80 70 66 63 64 72 70 77 80 81 81 82 78 71 74 77 83 84 87 87 89 88 82 83 83 83 83 84 84 84 84 84 84 84 84 84 84 84 84 84 84 84 83 84 84 84 84
89 86 79 70 65 68 72 76 76 77 82 83 82 75 78 80 76 82 84 85 86 86 89 84 83 83 83 84 84 84 84 84 84 84 84 84 84 84 84 84 84 84 84 85 84 83 84 84 84
88 80 70 68 67 71 75 76 77 76 79 81 82 73 72 79 84 84 83 84 86 87 88 87 83 83 83 83 83 84 84 84 84 84 84 84 84 84 84 84 84 84 84 85 85 85 85 84 84
82 80 69 67 69 72 78 80 79 78 80 80 78 75 72 80 81 82 85 84 88 87 89 87 84 83 83 84 84 84 84 84 84 84 84 84 84 84 84 84 84 84 84 84 84 84 84 84 84
80 75 69 70 70 72 76 81 78 79 79 79 84 73 71 74 80 82 84 84 87 87 86 87 84 84 84 84 84 84 84 84 84 84 84 84 84 84 84 84 84 84 84 84 83 83 83 82 84
83 79 71 72 69 72 79 81 82 80 78 87 86 74 70 74 80 80 80 82 85 85 86 85 82 84 85 86 84 84 84 84 84 83 83 81 80 79 79 83 82 84 84 84 83 83 83 83 83
85 76 71 73 72 75 81 79 84 86 83 84 84 83 83 79 80 77 75 77 81 82 83 85 85 85 84 85 84 84 84 84 84 82 84 80 74 76 77 80 82 82 83 84 84 84 84 82 83
82 76 75 81 82 80 81 80 81 81 80 79 77 80 81 80 79 76 74 76 80 81 81 84 85 86 86 87 85 84 81 87 81 82 81 78 77 77 80 82 81 82 82 81 81 81 82 81 86
81 77 81 83 85 85 82 80 84 80 76 80 78 75 78 79 79 79 79 81 82 83 83 83 84 83 85 85 86 86 81 83 83 82 78 79 82 84 85 85 85 81 82 88 84 86 88 86 85
79 82 84 85 85 83 81 84 80 82 82 85 84 81 79 78 79 80 80 80 80 79 82 84 84 82 83 86 85 85 75 80 85 84 80 82 82 82 82 77 76 77 80 84 84 81 85 85 84
81 84 85 87 85 84 85 82 82 81 85 86 83 80 80 80 79 80 80 80 80 76 82 83 83 81 81 81 84 75 78 80 79 84 84 84 83 82 82 81 77 79 79 84 84 84 84 82 82
85 84 84 85 84 86 82 81 82 81 83 81 80 79 80 80 80 79 78 75 75 78 79 83 82 82 82 82 81 79 82 79 78 79 84 81 83 81 82 82 82 82 82 85 84 79 80 78 81
84 81 84 82 83 82 85 76 78 81 82 79 79 79 79 79 80 78 78 77 74 76 80 80 81 83 81 82 81 83 84 79 74 79 74 81 80 78 80 82 81 82 82 82 83 82 82 81 76
79 80 75 82 81 82 84 75 81 81 80 78 78 78 78 78 79 80 80 78 75 78 79 75 79 79 79 82 82 84 83 84 79 77 75 78 78 78 79 81 82 84 83 83 84 84 79 79 80
78 72 72 77 83 80 80 75 76 81 81 78 77 78 79 77 78 79 80 80 79 79 78 73 75 74 74 80 81 81 81 80 80 82 79 80 79 74 79 81 83 82 83 82 83 80 79 78 74
69 71 73 72 79 80 77 75 75 79 79 79 78 79 77 76 77 78 79 80 81 79 78 73 72 73 76 79 80 79 80 79 82 82 80 80 81 79 79 79 81 82 82 82 82 79 80 74 78
75 73 72 77 82 78 76 77 75 78 78 77 78 77 76 77 79 79 80 80 79 76 71 71 70 73 76 77 77 77 79 78 79 80 81 81 80 79 78 80 81 81 80 80 81 82 76 84 83
76 74 74 79 81 78 72 73 75 77 78 80 79 77 78 80 77 77 79 79 75 72 75 75 71 74 75 80 80 79 79 79 84 81 80 80 75 79 75 74 79 81 82 79 79 79 79 84 83
76 74 73 73 78 76 73 72 72 77 78 79 80 81 81 80 80 77 77 79 78 77 75 76 72 79 77 80 79 78 80 80 79 79 78 73 73 76 74 76 79 80 80 81 79 79 79 81 79
72 78 77 76 73 68 75 65 71 75 75 76 79 79 80 79 78 78 77 78 79 80 81 79 79 79 79 80 79 78 77 77 79 79 76 73 75 75 80 80 80 80 82 79 81 82 81 79 76
75 80 77 76 73 72 70 67 74 70 74 77 77 79 81 81 80 78 78 79 81 81 81 82 80 79 80 79 79 79 79 82 79 76 72 72 75 81 78 80 80 80 82 80 80 80 79 81 76
83 78 74 72 74 66 70 68 73 76 77 76 80 81 81 81 79 79 79 79 80 82 82 82 79 79 79 79 79 79 79 79 78 77 79 74 76 79 81 81 80 80 81 80 81 81 80 81 81
77 75 66 64 65 64 66 64 73 81 80 79 80 81 82 81 80 79 78 78 80 79 81 82 80 79 80 80 80 80 80 80 79 79 81 77 76 76 79 80 80 81 80 81 81 80 80 81 80
75 77 68 56 60 65 65 65 74 79 79 80 81 84 84 83 83 82 80 80 80 80 81 82 81 79 81 81 80 80 81 82 83 81 79 78 75 76 79 81 82 81 81 81 81 82 82 82 82
72 70 76 67 63 65 69 71 77 78 78 77 79 82 82 83 83 82 82 81 81 81 81 82 81 81 81 82 81 80 82 81 80 76 73 72 76 78 80 81 80 81 81 81 81 82 81 81 82
79 78 70 70 59 57 65 63 69 76 78 78 78 80 82 84 83 84 83 83 83 84 84 83 82 83 82 83 83 83 81 81 80 77 77 76 76 79 78 77 79 81 81 81 80 81 81 80 82
73 73 70 72 70 63 60 68 79 77 80 79 80 80 83 83 84 84 84 85 84 85 84 85 83 83 83 84 83 82 81 80 80 80 77 78 80 80 79 77 79 80 80 81 80 80 80 79 80
77 77 77 70 64 65 64 69 82 78 79 80 82 82 83 83 85 85 85 85 84 83 84 83 82 82 84 83 82 82 83 81 80 82 82 82 81 81 80 80 80 80 79 79 79 79 81 80 80
MSLP
1007.07 1006.92 1007.10 1007.07 1007.73 1008.23 1009.22 1010.00 1010.27 1009.74 1009.39 1009.12 1009.00 1009.07 1009.51 1010.09 1010.72 1012.23 1012.92 1013.28 1013.60 1014.20 1014.73 1015.03 1015.21 1015.56 1015.79 1016.05 1016.25 1016.47 1016.91 1017.13 1017.30 1017.64 1018.00 1018.17 1018.28 1018.49 1018.47 1018.53 1018.72 1018.81 1018.79 1018.63 1018.41 1018.41 1018.81 1019.03 1019.17
1006.87 1006.81 1006.76 1006.89 1007.70 1008.58 1009.59 1009.81 1009.75 1009.28 1008.98 1008.89 1008.82 1009.18 1009.67 1010.60 1011.59 1012.43 1012.92 1013.54 1013.71 1013.98 1014.55 1015.08 1015.54 1015.65 1015.99 1016.31 1016.56 1016.67 1016.96 1017.39 1017.62 1017.84 1018.10 1018.30 1018.46 1018.50 1018.55 1018.71 1018.97 1019.01 1018.97 1018.88 1018.91 1018.61 1018.73 1019.27 1019.32
1006.89 1006.76 1006.91 1007.52 1008.41 1008.79 1009.15 1009.49 1009.35 1009.00 1008.92 1008.65 1008.66 1009.21 1010.15 1011.36 1012.17 1012.59 1012.99 1013.54 1013.93 1014.26 1014.56 1015.22 1015.63 1015.84 1016.21 1016.55 1016.81 1016.96 1017.13 1017.50 1017.83 1017.96 1018.15 1018.34 1018.43 1018.54 1018.73 1018.87 1019.10 1019.21 1019.22 1019.12 1019.26 1019.27 1019.25 1019.27 1019.63
1006.49 1006.63 1007.54 1007.80 1008.32 1008.91 1008.81 1008.95 1009.07 1008.78 1008.63 1008.70 1008.85 1009.67 1011.13 1011.86 1012.39 1012.70 1013.27 1013.74 1014.07 1014.52 1014.81 1015.51 1015.83 1016.06 1016.36 1016.57 1016.85 1017.12 1017.46 1017.75 1018.17 1018.41 1018.56 1018.67 1018.86 1018.85 1018.91 1019.01 1019.19 1019.38 1019.42 1019.36 1019.49 1019.61 1019.67 1019.66 1019.85
1006.50 1006.79 1007.31 1008.02 1008.49 1008.71 1008.88 1008.89 1008.83 1008.77 1008.65 1008.65 1008.91 1010.27 1011.51 1012.35 1012.52 1013.13 1013.63 1014.04 1014.33 1014.69 1015.01 1015.61 1016.09 1016.33 1016.53 1016.70 1017.01 1017.33 1017.65 1017.90 1018.10 1018.43 1018.63 1018.89 1019.03 1019.17 1019.10 1019.29 1019.31 1019.43 1019.52 1019.58 1019.66 1019.73 1019.83 1019.93 1020.07
1006.31 1006.93 1007.40 1007.71 1008.26 1008.42 1008.24 1008.44 1008.50 1008.27 1008.48 1008.85 1009.37 1010.30 1011.97 1012.70 1012.99 1013.39 1013.79 1014.17 1014.45 1014.81 1015.16 1015.80 1016.19 1016.51 1016.75 1016.99 1017.29 1017.59 1017.92 1018.11 1018.31 1018.56 1018.77 1019.01 1019.17 1019.34 1019.39 1019.50 1019.52 1019.61 1019.77 1019.85 1019.96 1019.92 1020.02 1020.07 1020.21
1006.08 1006.66 1007.41 1007.67 1007.91 1007.84 1007.78 1008.02 1008.12 1008.11 1008.26 1008.61 1009.06 1010.18 1012.17 1012.81 1013.29 1013.65 1014.06 1014.55 1014.78 1014.99 1015.26 1015.92 1016.27 1016.49 1016.83 1017.04 1017.39 1017.68 1017.98 1018.25 1018.38 1018.55 1018.75 1019.06 1019.11 1019.45 1019.59 1019.68 1019.76 1019.80 1019.89 1020.00 1020.06 1020.13 1020.19 1020.32 1020.33
1006.27 1006.62 1007.14 1007.47 1007.45 1007.29 1007.51 1007.75 1007.90 1007.97 1008.06 1008.47 1008.91 1009.71 1011.47 1012.66 1013.38 1014.04 1014.44 1014.76 1015.02 1015.37 1015.49 1015.85 1016.39 1016.54 1016.79 1017.02 1017.37 1017.68 1017.97 1018.21 1018.45 1018.56 1018.71 1019.23 1019.72 1019.47 1020.02 1019.71 1019.75 1019.84 1019.95 1020.13 1020.12 1020.13 1020.20 1020.18 1020.18
1006.40 1006.28 1006.52 1006.81 1006.99 1006.90 1007.07 1007.43 1007.67 1007.85 1007.95 1008.42 1009.03 1009.51 1010.24 1012.19 1013.23 1014.04 1014.49 1014.97 1015.11 1015.51 1015.78 1016.05 1016.32 1016.63 1016.98 1017.19 1017.45 1017.65 1017.94 1018.15 1018.44 1018.73 1018.89 1019.13 1019.70 1019.89 1020.05 1020.05 1020.05 1019.90 1019.97 1020.08 1020.05 1020.01 1019.89 1020.03 1020.13
1006.11 1006.14 1006.05 1006.17 1006.29 1006.27 1006.77 1007.14 1007.51 1007.93 1008.10 1008.55 1009.50 1010.41 1011.14 1012.02 1012.93 1013.60 1014.05 1014.37 1014.79 1015.27 1015.65 1015.99 1016.11 1016.28 1016.73 1017.12 1017.47 1017.68 1017.89 1018.03 1018.60 1018.92 1019.17 1019.67 1019.89 1020.04 1020.20 1020.04 1020.11 1019.99 1019.95 1020.11 1019.97 1019.93 1019.71 1019.82 1019.79
1006.14 1005.99 1005.93 1005.75 1005.92 1005.99 1006.44 1007.05 1007.49 1007.70 1008.06 1008.29 1009.01 1010.45 1011.33 1011.95 1012.66 1013.06 1013.73 1014.07 1014.20 1014.78 1015.42 1015.85 1016.08 1016.43 1016.61 1016.84 1017.27 1017.57 1017.90 1018.15 1018.50 1018.92 1019.31 1019.62 1019.71 1019.81 1019.89 1019.95 1019.89 1020.00 1020.00 1019.79 1019.84 1019.57 1019.29 1019.23 1019.51
1006.03 1005.96 1005.80 1005.53 1005.59 1005.87 1006.21 1006.69 1007.12 1007.52 1007.78 1008.15 1008.79 1009.92 1010.85 1011.61 1012.13 1012.57 1013.27 1013.75 1014.17 1014.59 1015.06 1015.63 1015.99 1016.65 1016.79 1016.93 1017.03 1017.30 1017.93 1018.09 1018.16 1018.69 1019.19 1019.30 1019.52 1019.70 1019.76 1020.05 1020.11 1020.04 1019.98 1019.64 1019.59 1019.40 1019.18 1019.11 1019.33
1005.69 1005.48 1005.51 1005.36 1005.61 1006.00 1006.28 1006.61 1007.08 1007.29 1007.91 1008.26 1009.13 1010.10 1010.75 1011.44 1011.93 1012.59 1013.28 1013.84 1014.29 1014.63 1014.57 1015.13 1015.85 1016.49 1016.79 1017.15 1016.97 1017.53 1017.89 1017.97 1018.20 1018.36 1018.75 1018.99 1019.14 1019.34 1019.57 1019.71 1020.07 1019.89 1019.87 1019.45 1019.31 1019.10 1018.97 1018.93 1019.01
1005.77 1005.58 1005.42 1005.30 1005.55 1005.92 1006.24 1006.73 1007.28 1007.70 1008.24 1008.67 1009.39 1010.05 1010.73 1011.17 1011.81 1012.61 1013.08 1013.46 1013.80 1014.23 1014.67 1015.09 1015.57 1016.01 1016.53 1016.84 1017.23 1017.42 1017.51 1017.85 1018.11 1018.35 1018.38 1018.89 1019.00 1019.29 1019.35 1019.37 1019.40 1019.38 1019.48 1019.24 1019.19 1019.01 1018.87 1019.02 1018.83
1005.69 1005.33 1005.39 1005.52 1005.66 1005.95 1006.33 1006.85 1006.86 1007.84 1008.32 1008.93 1009.57 1010.21 1010.75 1011.16 1011.73 1012.12 1012.76 1013.12 1013.32 1013.60 1014.54 1014.82 1015.24 1015.57 1016.43 1016.70 1017.07 1017.28 1017.34 1017.83 1017.99 1017.87 1018.39 1018.61 1018.91 1019.14 1019.34 1019.19 1019.22 1019.15 1019.20 1019.23 1019.11 1018.88 1018.71 1018.72 1018.97
1006.00 1005.72 1005.56 1005.61 1005.90 1006.33 1006.33 1006.01 1006.98 1007.87 1008.36 1008.83 1009.37 1009.94 1010.45 1010.85 1011.37 1011.86 1012.34 1012.88 1013.62 1013.91 1014.21 1014.95 1015.31 1015.71 1016.29 1016.53 1016.77 1016.85 1017.10 1017.17 1017.37 1017.65 1018.04 1017.99 1018.52 1018.89 1019.13 1018.97 1018.91 1018.93 1018.93 1018.97 1018.75 1018.62 1018.49 1018.67 1018.77
1006.20 1005.90 1005.86 1005.68 1005.81 1006.17 1006.59 1006.65 1007.35 1007.95 1008.26 1008.57 1009.11 1009.61 1010.00 1010.69 1011.26 1011.71 1012.10 1012.55 1012.99 1013.51 1014.23 1014.83 1015.15 1015.63 1015.89 1016.32 1016.56 1016.63 1016.70 1016.94 1017.11 1017.21 1017.38 1017.44 1018.18 1018.81 1018.77 1018.67 1018.57 1018.89 1018.71 1018.74 1018.79 1018.60 1018.55 1018.79 1018.65
1006.45 1006.23 1006.09 1005.96 1005.94 1006.13 1006.57 1006.89 1007.57 1007.78 1008.01 1008.30 1008.91 1009.43 1009.82 1010.37 1010.82 1011.59 1012.03 1012.44 1012.85 1013.35 1013.89 1014.48 1014.36 1015.50 1016.05 1016.40 1016.39 1016.48 1016.77 1016.71 1016.76 1016.74 1016.70 1016.98 1017.51 1018.01 1018.25 1018.44 1018.46 1018.59 1018.54 1018.65 1018.67 1018.60 1018.69 1018.83 1018.60
1006.64 1006.52 1006.29 1005.79 1005.85 1006.07 1006.34 1006.73 1007.26 1007.55 1007.78 1008.09 1008.54 1009.18 1009.47 1009.91 1010.66 1011.38 1011.81 1012.29 1012.74 1013.32 1013.93 1013.99 1013.62 1015.58 1015.98 1016.11 1016.07 1016.24 1016.08 1016.26 1016.12 1016.14 1016.22 1016.59 1017.02 1017.56 1017.88 1017.89 1018.00 1018.24 1018.33 1018.50 1018.61 1018.57 1018.62 1018.30 1018.61
1006.50 1006.31 1006.04 1005.75 1005.79 1006.03 1006.63 1006.60 1007.00 1007.17 1007.24 1007.56 1008.02 1008.66 1008.92 1009.43 1010.43 1011.02 1011.47 1011.92 1012.49 1012.84 1013.36 1013.99 1014.37 1015.23 1015.58 1015.65 1015.61 1015.74 1015.66 1015.76 1015.49 1015.64 1015.97 1016.41 1016.97 1017.19 1017.57 1017.72 1017.70 1017.78 1018.00 1018.37 1018.53 1018.57 1018.44 1018.25 1018.49
1006.24 1006.24 1006.19 1006.20 1005.85 1006.39 1006.65 1006.50 1006.52 1006.65 1007.04 1007.31 1007.75 1008.13 1008.47 1008.87 1009.55 1010.43 1011.15 1011.53 1012.05 1012.50 1012.96 1013.45 1014.23 1014.73 1015.26 1015.40 1015.51 1015.59 1015.45 1015.43 1015.45 1015.74 1016.11 1016.62 1016.79 1017.08 1017.44 1017.53 1017.51 1017.61 1017.92 1017.86 1018.30 1018.43 1018.37 1018.11 1018.34
1005.98 1006.16 1006.12 1006.23 1006.18 1005.92 1006.52 1005.93 1005.89 1005.83 1006.01 1006.55 1006.92 1007.49 1007.89 1008.37 1009.24 1009.91 1010.63 1011.12 1011.70 1012.05 1012.54 1013.01 1013.66 1014.21 1014.67 1014.93 1015.11 1015.11 1014.94 1015.11 1015.36 1015.69 1016.14 1016.26 1016.56 1016.91 1016.85 1017.01 1017.16 1017.39 1017.37 1017.74 1017.91 1018.11 1018.16 1018.29 1018.14
1005.89 1006.21 1006.23 1005.95 1005.93 1006.07 1006.09 1006.25 1005.31 1005.71 1005.12 1005.13 1005.99 1006.54 1007.21 1007.75 1008.55 1009.33 1010.06 1010.63 1011.26 1011.78 1012.10 1012.49 1013.11 1013.69 1014.17 1014.49 1014.68 1014.68 1014.80 1014.82 1015.29 1015.84 1016.08 1016.15 1016.25 1016.24 1016.61 1016.66 1016.89 1017.15 1017.07 1017.40 1017.54 1017.76 1018.00 1017.99 1018.06
1005.78 1005.77 1005.94 1006.27 1005.89 1005.64 1005.85 1006.03 1004.48 1004.44 1004.27 1004.61 1005.19 1005.77 1006.43 1007.11 1008.12 1008.96 1009.81 1010.49 1010.99 1011.40 1011.75 1012.17 1012.81 1013.37 1013.82 1014.17 1014.46 1014.52 1014.61 1014.75 1014.99 1015.33 1015.61 1016.01 1016.06 1016.08 1016.03 1016.34 1016.59 1016.71 1016.71 1017.01 1017.18 1017.43 1017.67 1017.69 1017.87
1005.65 1005.66 1005.38 1005.41 1005.51 1005.39 1006.22 1005.91 1004.23 1003.66 1004.01 1004.40 1004.67 1005.23 1006.00 1006.81 1007.53 1008.34 1009.23 1010.02 1010.55 1011.03 1011.41 1011.93 1012.42 1012.86 1013.26 1013.70 1013.98 1014.15 1014.31 1014.57 1014.55 1014.95 1015.22 1015.56 1015.65 1015.65 1015.77 1015.97 1016.16 1016.33 1016.45 1016.56 1016.79 1017.13 1017.24 1017.38 1017.47
1005.31 1005.19 1005.04 1005.02 1005.33 1005.51 1006.24 1005.07 1003.84 1003.73 1004.00 1004.18 1004.52 1004.77 1005.53 1006.32 1007.07 1007.61 1008.56 1009.55 1010.11 1010.61 1011.11 1011.52 1012.02 1012.45 1012.83 1013.18 1013.44 1013.78 1014.07 1014.27 1014.44 1014.76 1015.30 1015.44 1015.38 1015.45 1015.44 1015.54 1015.53 1015.71 1015.97 1016.11 1016.38 1016.74 1016.87 1016.93 1017.04
1005.21 1005.42 1005.38 1005.29 1006.25 1005.67 1005.19 1004.67 1003.78 1003.29 1003.62 1004.05 1004.20 1004.51 1005.16 1005.85 1006.69 1007.43 1008.24 1009.13 1009.57 1010.03 1010.71 1011.14 1011.64 1012.03 1012.38 1012.77 1013.23 1013.50 1013.71 1013.91 1014.24 1014.88 1014.97 1014.61 1015.28 1015.10 1014.96 1015.09 1015.31 1015.39 1015.54 1015.72 1016.06 1016.23 1016.48 1016.67 1016.75
1004.48 1005.02 1005.24 1005.22 1004.93 1004.64 1004.47 1004.20 1003.20 1002.79 1002.82 1003.26 1003.67 1004.03 1004.59 1005.44 1006.41 1007.12 1007.91 1008.63 1009.23 1009.77 1010.45 1010.96 1011.36 1011.62 1012.03 1012.49 1012.91 1013.15 1013.42 1013.81 1014.08 1014.80 1014.92 1015.01 1014.89 1014.67 1014.79 1014.72 1014.92 1015.10 1015.27 1015.52 1015.76 1015.83 1016.09 1016.29 1016.30
1004.70 1004.71 1005.13 1005.13 1004.86 1004.23 1003.82 1002.85 1002.50 1002.36 1002.38 1002.66 1003.08 1003.67 1004.23 1005.13 1005.96 1006.79 1007.63 1008.35 1009.02 1009.63 1010.19 1010.55 1011.07 1011.43 1011.79 1012.19 1012.65 1013.02 1013.22 1013.50 1013.90 1014.36 1014.62 1014.41 1014.46 1014.53 1014.51 1014.63 1014.71 1014.72 1015.02 1015.29 1015.50 1015.62 1015.65 1015.90 1015.89
1003.99 1003.88 1004.16 1004.08 1004.56 1004.69 1003.98 1002.07 1001.93 1002.40 1002.63 1002.71 1002.83 1003.51 1004.29 1004.99 1005.71 1006.51 1007.37 1008.09 1008.81 1009.37 1009.95 1010.44 1010.90 1011.30 1011.70 1012.14 1012.63 1012.89 1013.16 1013.58 1013.87 1014.17 1014.35 1014.59 1014.79 1014.87 1014.85 1014.86 1014.75 1014.78 1014.93 1014.93 1015.10 1015.20 1015.25 1015.39 1015.39
Wind_Speed
2 1 2 2 2 6 4 3 1 3 1 1 4 2 1 4 1 3 10 11 20 19 17 17 17 18 17 17 18 18 18 17 16 16 15 13 13 12 11 13 12 11 11 12 15 15 10 8 10
2 2 2 2 4 4 4 2 3 4 1 1 5 4 1 4 5 10 15 18 21 19 17 18 17 18 18 17 18 18 18 17 16 16 14 13 12 11 12 13 12 10 9 11 11 13 11 9 7
2 2 3 4 3 4 6 7 7 4 4 1 3 6 3 4 8 17 13 22 20 18 17 18 18 18 18 18 17 16 17 16 14 14 14 13 13 13 13 13 12 10 8 10 10 9 8 8 6
0 1 4 5 9 2 3 5 4 3 3 3 6 6 6 4 13 8 21 21 19 18 17 18 19 19 18 17 17 17 16 16 14 13 13 12 10 11 11 12 12 10 7 8 11 8 7 5 7
2 2 5 5 4 2 3 3 4 3 1 3 1 5 7 4 9 18 20 18 19 18 16 17 18 17 18 18 17 16 15 14 15 13 12 12 11 10 11 10 9 9 7 6 7 8 7 6 4
3 0 4 7 6 2 2 4 2 1 2 5 7 8 4 5 15 19 19 17 18 18 16 16 17 17 17 18 17 15 15 14 13 13 12 10 9 8 6 7 7 7 7 6 5 5 5 5 5
3 3 4 4 5 1 1 3 3 4 4 5 9 5 5 9 15 17 17 16 16 17 16 15 12 16 19 17 17 16 15 13 13 13 12 10 8 5 4 3 4 5 5 4 4 3 3 4 5
2 2 5 2 3 0 2 5 4 2 4 7 5 5 6 12 17 14 14 15 16 15 15 15 10 10 12 14 17 16 15 14 13 14 13 11 7 8 9 3 3 4 3 3 2 2 3 5 6
1 3 3 6 7 1 4 5 2 3 4 3 2 3 9 23 20 15 14 13 14 13 14 14 13 12 11 10 10 14 15 14 14 14 14 12 4 5 7 8 3 3 2 2 3 4 4 3 8
1 1 4 3 6 4 9 7 5 4 5 3 7 11 20 22 20 19 18 16 17 16 16 14 14 15 13 9 9 8 6 8 6 8 7 6 7 6 7 5 2 4 3 3 4 4 7 8 6
1 1 2 2 7 4 9 7 5 5 5 7 10 17 20 21 19 19 18 17 18 17 13 15 14 13 14 10 8 6 4 5 6 8 6 6 5 5 3 3 3 2 2 3 3 4 4 7 6
2 3 5 2 5 5 8 5 4 8 1 1 13 20 21 21 19 19 18 17 17 16 16 16 15 12 12 8 9 7 3 5 6 7 8 6 5 5 4 2 3 2 2 3 3 2 3 5 7
2 2 1 4 9 5 5 5 3 7 3 5 15 18 19 18 17 14 14 14 15 16 17 17 15 13 11 10 8 4 6 5 5 7 8 6 6 5 4 4 3 5 2 4 2 4 4 5 6
5 6 6 4 7 8 7 3 4 2 6 11 15 16 16 18 17 14 16 14 15 14 14 15 16 14 13 11 10 6 7 4 5 5 7 8 6 4 4 4 4 5 5 3 3 4 3 4 5
6 4 4 1 8 6 9 3 10 5 8 11 12 14 15 16 16 17 16 17 13 13 14 16 16 15 13 13 9 8 6 5 4 7 5 9 7 6 5 4 4 4 4 5 4 4 4 4 1
2 3 3 2 7 3 10 9 6 11 12 11 12 12 14 16 17 16 16 14 12 9 14 9 9 13 9 11 9 7 7 7 6 6 6 8 8 7 6 5 5 4 4 4 4 4 3 1 4
7 2 4 4 8 4 11 4 0 10 10 11 12 12 12 12 13 15 15 15 16 15 14 12 9 6 9 11 9 9 9 7 6 5 5 7 7 7 7 6 5 5 4 4 4 4 2 1 4
3 3 4 4 2 8 10 5 3 10 12 11 10 11 11 12 14 11 11 12 12 13 13 12 11 9 8 9 8 6 5 6 5 6 5 5 6 7 8 6 7 6 5 4 4 3 1 1 2
3 1 5 3 2 3 7 8 8 10 11 11 12 12 13 13 9 10 10 9 12 10 10 15 13 12 9 7 7 7 8 6 6 6 7 8 5 6 8 7 7 6 6 5 4 2 3 1 1
0 6 4 0 8 1 2 6 6 11 13 13 13 12 14 11 10 8 10 10 10 11 15 17 16 13 9 7 6 5 5 4 4 4 4 4 3 7 7 6 7 7 5 6 5 4 1 1 1
3 5 2 5 9 3 4 5 6 6 11 9 9 9 11 12 11 9 10 12 10 11 14 16 12 13 8 10 5 4 4 3 2 2 2 3 4 7 7 9 7 6 6 5 5 5 4 2 3
6 2 5 7 4 4 2 4 5 7 12 10 10 11 11 10 7 9 10 11 11 10 10 12 12 11 10 11 8 9 4 4 2 1 3 3 6 7 8 8 8 7 6 5 5 5 4 4 3
4 2 6 5 3 4 4 5 2 2 10 14 13 12 11 9 9 9 10 11 12 9 11 11 10 8 8 9 9 6 7 4 1 2 2 3 3 6 7 8 8 7 7 7 6 5 5 4 2
6 3 3 1 2 4 1 5 6 5 6 2 10 13 11 9 8 8 8 9 11 9 10 9 11 9 8 10 10 10 8 7 4 4 3 3 3 4 7 8 8 7 7 8 7 6 7 5 5
3 4 4 5 4 6 2 4 8 8 8 7 6 14 12 10 10 9 10 10 10 11 11 9 10 10 10 10 9 9 8 6 5 3 3 3 3 4 7 8 8 8 8 7 7 7 8 7 6
6 5 4 5 5 4 1 5 6 5 7 7 6 11 12 11 10 11 11 11 11 11 12 10 10 9 10 10 9 7 7 4 4 2 2 5 5 4 6 8 9 9 9 8 8 6 7 7 7
7 6 2 4 1 4 1 6 12 8 9 6 6 10 13 13 12 11 11 11 12 12 12 11 10 10 9 9 8 9 8 7 4 5 4 4 6 5 7 8 8 8 9 9 8 7 8 7 7
3 8 4 2 4 10 5 5 9 9 8 12 12 12 15 13 11 10 11 11 11 11 10 12 11 11 9 10 8 6 5 5 5 4 4 6 5 4 5 7 7 8 8 8 8 7 7 8 7
5 4 2 1 2 6 8 7 7 11 10 11 15 13 15 14 12 11 10 10 10 9 10 11 10 9 8 8 7 7 6 5 5 5 5 4 4 3 5 6 6 7 7 7 7 7 6 8 8
2 4 8 4 5 1 5 10 3 6 7 9 10 13 12 13 13 12 11 11 11 10 10 10 9 8 8 8 8 6 4 7 6 6 6 6 5 5 4 4 4 4 4 6 8 8 7 9 9
Wind_Direction
240 266 200 164 86 58 63 67 271 18 148 80 194 197 254 53 7 64 145 148 143 145 144 139 132 129 127 119 119 118 122 126 127 136 143 141 135 134 138 123 121 123 125 121 128 116 106 107 107
284 220 37 79 80 96 71 121 288 219 200 135 130 131 98 83 65 124 140 152 148 146 146 142 137 131 127 124 123 124 127 131 137 142 142 140 142 144 139 127 125 129 129 127 117 108 118 117 111
233 34 68 68 90 111 130 179 202 237 204 35 139 56 42 58 114 146 131 148 146 146 147 141 139 132 131 130 128 128 134 137 138 134 136 139 142 144 128 125 130 133 129 132 124 127 114 107 126
314 83 85 80 97 115 108 151 163 221 133 137 116 75 88 16 148 148 146 149 146 148 147 141 139 136 134 133 132 133 134 139 137 139 139 136 130 124 125 132 134 133 133 129 133 143 148 116 145
46 67 74 89 84 117 153 100 137 40 39 57 119 91 90 32 126 142 145 150 149 149 147 146 141 140 138 137 137 137 140 141 142 142 138 132 133 137 133 136 128 127 126 121 132 139 147 152 159
85 110 93 99 121 180 228 163 180 123 54 122 104 106 95 119 137 149 148 153 153 148 149 148 150 145 142 143 142 143 146 147 136 134 128 127 123 121 117 121 126 126 119 116 130 143 155 153 161
73 74 73 105 105 153 184 150 169 125 121 107 131 97 112 152 149 153 151 151 154 152 151 155 158 153 153 150 150 152 151 148 143 136 117 97 93 91 126 132 140 140 126 124 136 170 203 221 187
92 95 122 114 143 350 139 168 149 182 123 137 171 146 165 168 153 146 149 153 156 158 160 158 160 166 160 158 158 159 157 154 149 128 127 83 69 34 308 263 201 171 144 130 150 177 212 222 213
154 97 145 147 172 174 200 187 146 127 129 127 88 123 129 147 149 146 148 156 160 168 168 166 168 169 168 165 168 165 170 166 161 150 158 144 148 190 266 273 239 214 169 286 258 238 224 251 245
6 116 200 192 174 194 181 191 161 177 183 162 89 92 133 147 156 159 169 170 172 171 179 177 180 179 176 177 179 177 175 167 165 160 161 156 181 206 243 252 272 281 291 3 333 319 246 204 227
48 53 167 188 206 219 168 194 175 188 206 204 179 148 152 155 167 171 177 179 177 175 182 186 189 188 185 185 184 186 189 162 174 163 159 174 193 209 239 248 238 250 286 291 304 294 220 227 212
322 191 250 311 193 186 182 153 192 211 155 250 176 161 159 167 174 179 179 178 180 180 185 189 195 195 196 193 190 187 173 168 186 186 178 188 192 211 214 229 278 276 253 270 271 267 280 246 218
218 346 159 256 173 203 153 186 202 245 277 102 148 161 170 173 179 180 179 182 184 192 186 186 190 197 196 205 197 161 200 185 196 194 199 205 210 226 238 243 238 235 239 267 262 274 264 239 229
315 297 276 180 174 179 191 206 211 113 125 132 155 167 175 183 181 175 183 185 194 187 196 186 190 193 199 206 205 194 202 211 192 200 214 209 223 236 252 251 250 235 220 244 266 289 298 293 258
298 345 130 149 177 173 152 224 227 135 155 156 168 172 181 191 186 190 191 192 192 195 193 193 189 187 197 204 206 213 217 191 226 213 172 234 220 218 248 257 253 231 217 241 254 270 273 241 178
47 50 20 2 162 164 194 258 190 162 174 173 182 183 190 198 198 195 196 193 198 215 200 185 174 182 199 207 203 217 215 230 228 208 201 222 226 226 236 237 239 234 217 231 251 266 261 121 251
32 45 8 355 188 146 205 303 97 177 194 188 195 199 205 203 204 203 204 204 194 201 196 161 154 164 178 213 211 219 228 224 251 246 215 210 224 208 228 228 228 223 233 227 254 263 284 85 276
40 13 348 302 25 207 202 235 203 196 208 211 210 210 214 213 211 201 213 215 211 201 182 158 157 192 198 218 214 226 233 237 219 240 237 229 221 213 227 213 235 224 227 215 237 284 13 221 320
115 324 308 282 80 176 210 242 221 202 215 219 218 215 224 221 211 205 204 207 209 189 163 162 173 203 192 200 203 224 226 226 223 225 227 217 226 225 221 215 214 212 217 215 217 251 228 267 334
111 311 334 253 57 347 220 228 235 217 226 226 226 224 231 223 206 203 210 202 186 181 187 174 186 194 200 209 198 213 208 225 245 232 224 233 246 223 204 239 205 200 205 208 211 225 261 217 252
320 299 306 339 339 95 173 253 239 232 241 236 231 245 234 231 222 210 206 202 194 191 191 184 185 196 195 210 203 193 181 188 230 238 137 187 188 216 204 208 217 200 215 204 204 209 222 239 215
298 235 323 300 265 268 247 285 255 235 251 237 232 216 223 217 206 195 201 193 194 191 184 175 181 185 197 198 209 227 220 237 210 212 152 202 193 195 209 215 205 201 204 208 204 199 218 226 265
264 217 289 319 215 234 197 252 261 306 267 246 214 211 211 202 194 191 195 193 197 188 179 174 176 187 195 194 213 221 233 253 210 132 188 256 263 222 221 209 205 207 210 204 206 195 206 213 255
281 265 48 116 216 253 114 258 272 243 246 281 207 200 199 186 180 179 178 185 193 184 173 175 186 194 186 195 204 217 231 238 236 192 220 215 235 232 216 206 215 214 217 211 205 207 214 221 241
198 249 256 220 212 280 81 225 261 261 256 251 233 201 193 180 174 174 177 192 186 186 186 186 183 187 184 188 198 207 211 226 252 270 291 297 250 219 221 218 214 212 214 212 212 211 221 216 231
189 237 248 261 244 333 190 238 248 295 313 247 230 210 187 182 181 182 181 195 191 193 198 192 186 192 183 188 191 194 210 216 229 259 25 323 298 207 227 219 221 218 213 209 208 219 223 218 222
154 204 42 140 117 254 276 263 276 267 250 218 209 195 189 185 187 186 180 194 195 197 203 197 191 190 189 193 192 196 201 210 190 178 180 239 266 240 219 211 213 213 212 211 205 218 218 228 227
265 131 191 207 237 269 248 272 267 276 258 220 216 202 192 185 187 185 188 192 199 197 198 194 192 191 192 190 196 193 193 216 198 188 207 210 214 194 187 202 202 202 201 204 206 205 210 218 224
148 182 92 208 258 281 287 276 223 255 266 245 221 206 194 183 190 185 190 189 195 191 186 183 186 184 179 179 180 187 188 186 146 167 171 111 104 112 158 167 184 211 188 193 202 223 218 222 227
303 280 210 247 197 249 312 270 196 267 287 266 236 209 189 191 190 185 193 181 184 184 188 186 179 178 176 168 172 168 158 133 120 107 98 97 97 90 86 125 167 199 199 211 199 211 221 229 231